Santuari del Far - Susqueda





Hora UTC 21:25
Temperatura 0.3 ºC
Humitat 66.0 %
Pressió 1000.8 hPa
Pluja 2.2 mm
Velocitat vent 8.0 km/h
Direcció vent N

Dades diàries 2021-11-27



Hora UTC (hivern +1h; estiu +2h)
Temperatura (ºC) Humitat (%) Pressió (hPa) Velocitat vent (km/h) Precipitació (mm)
Hora UTC Aire Humitat Pressió Vel. Dir. Vel. Max Dir. Intent. màx 5 min.
00:00 -0.3 95.0 1000.2 8.0 N 8.0 0.0
00:10 -0.3 95.0 1000.1 9.7 N 12.9 0.0
00:15 -0.4 95.0 1000.2 9.7 N 12.9 0.0
00:20 -0.4 95.0 1000.0 8.0 N 11.3 0.0
00:25 -0.4 95.0 999.8 6.4 N 11.3 0.0
00:30 -0.4 95.0 999.5 8.0 N 11.3 0.0
00:35 -0.5 95.0 999.5 9.7 N 11.3 0.0
00:40 -0.5 95.0 999.3 11.3 N 11.3 0.0
00:45 -0.4 95.0 999.2 11.3 N 14.5 0.0
00:50 -0.4 95.0 999.3 11.3 N 14.5 0.0
00:55 -0.4 96.0 999.3 14.5 N 14.5 0.0
01:00 -0.5 96.0 999.2 11.3 N 16.1 0.0
01:05 -0.5 96.0 999.3 11.3 N 16.1 0.0
01:10 -0.5 96.0 999.3 11.3 N 14.5 0.0
01:15 -0.4 96.0 999.1 12.9 N 16.1 0.0
01:20 -0.4 96.0 998.8 11.3 N 16.1 0.0
01:25 -0.4 96.0 998.7 11.3 N 14.5 0.0
01:30 -0.4 96.0 998.5 3.2 N 14.5 0.0
01:35 -0.4 96.0 998.4 12.9 N 14.5 0.0
01:40 -0.5 96.0 998.5 12.9 N 16.1 0.0
01:45 -0.6 96.0 998.5 14.5 N 16.1 0.0
01:50 -0.7 96.0 998.5 11.3 N 14.5 0.0
01:55 -0.7 96.0 998.3 9.7 N 12.9 0.0
02:00 -0.8 96.0 998.2 14.5 N 16.1 0.0
02:05 -0.8 96.0 998.2 4.8 N 16.1 0.0
02:10 -0.9 96.0 998.0 6.4 N 16.1 0.0
02:15 -0.9 96.0 998.0 9.7 N 12.9 0.0
02:20 -0.9 96.0 998.0 1.6 N 12.9 0.0
02:25 -0.9 96.0 997.9 3.2 N 11.3 0.0
02:30 -0.9 96.0 997.8 4.8 N 14.5 0.0
02:35 -0.9 96.0 997.7 12.9 N 14.5 0.0
02:40 -1.0 96.0 997.7 3.2 N 14.5 0.0
02:45 -1.1 96.0 997.4 8.0 N 14.5 0.0
02:50 -1.1 96.0 997.5 8.0 N 17.7 0.0
02:55 -1.2 96.0 997.4 4.8 N 17.7 0.0
03:00 -1.2 96.0 997.2 3.2 N 16.1 0.0
03:05 -1.2 96.0 997.1 6.4 N 12.9 0.0
03:10 -1.2 96.0 996.9 11.3 N 16.1 0.0
03:15 -1.3 96.0 997.0 8.0 N 16.1 0.0
03:20 -1.3 96.0 996.9 9.7 N 14.5 0.0
03:25 -1.4 96.0 996.7 9.7 N 16.1 0.0
03:30 -1.4 96.0 996.9 9.7 N 16.1 0.0
03:35 -1.5 96.0 996.6 11.3 N 16.1 0.0
03:40 -1.6 96.0 996.6 12.9 N 14.5 0.0
03:45 -1.7 96.0 996.7 9.7 N 17.7 0.0
03:50 -1.7 96.0 996.4 16.1 N 19.3 0.0
03:55 -1.8 96.0 996.5 14.5 N 19.3 0.0
04:00 -1.8 96.0 996.5 12.9 N 20.9 0.0
04:05 -1.8 96.0 996.3 14.5 N 20.9 0.0
04:10 -1.8 96.0 996.2 11.3 N 17.7 0.0
04:15 -1.9 96.0 996.2 16.1 N 17.7 0.0
04:20 -1.9 96.0 996.2 14.5 N 19.3 0.0
04:25 -1.9 96.0 996.1 14.5 N 17.7 0.0
04:30 -1.9 96.0 996.1 12.9 N 17.7 0.0
04:35 -1.9 96.0 996.1 16.1 N 17.7 0.0
04:40 -2.0 96.0 996.0 14.5 N 17.7 0.0
04:45 -2.1 96.0 996.0 12.9 N 17.7 0.0
04:50 -2.1 96.0 996.0 19.3 N 19.3 0.0
04:55 -2.1 96.0 995.8 16.1 N 20.9 0.0
05:00 -2.1 96.0 995.7 11.3 N 20.9 0.0
05:05 -2.1 96.0 995.5 9.7 N 16.1 0.0
05:10 -2.1 96.0 995.7 9.7 N 14.5 0.0
05:15 -2.2 96.0 995.7 11.3 N 14.5 0.0
05:20 -2.2 96.0 995.5 12.9 N 14.5 0.0
05:25 -2.2 96.0 995.4 14.5 N 16.1 0.0
05:25 -2.3 96.0 995.3 11.3 N 16.1 0.0
05:30 -2.3 96.0 995.3 16.1 N 16.1 0.0
05:35 -2.3 96.0 995.0 9.7 N 16.1 0.0
05:40 -2.4 96.0 995.0 11.3 N 17.7 0.0
05:45 -2.4 96.0 995.0 11.3 N 17.7 0.0
05:50 -2.4 96.0 994.9 11.3 N 16.1 0.0
05:55 -2.4 96.0 995.0 9.7 N 16.1 0.0
06:00 -2.4 96.0 995.0 9.7 N 16.1 0.0
06:05 -2.3 96.0 995.0 12.9 N 17.7 0.0
06:10 -2.3 96.0 995.1 16.1 N 17.7 0.0
06:15 -2.3 96.0 994.9 12.9 N 16.1 0.0
06:20 -2.2 96.0 994.9 12.9 N 16.1 0.0
06:25 -2.2 96.0 994.7 11.3 N 16.1 0.0
06:30 -2.2 96.0 994.7 11.3 N 16.1 0.0
06:35 -2.2 96.0 994.7 9.7 N 16.1 0.0
06:40 -2.2 96.0 994.7 12.9 N 16.1 0.0
06:45 -2.2 96.0 994.7 12.9 N 16.1 0.0
06:50 -2.2 96.0 995.0 16.1 N 16.1 0.0
06:55 -2.2 96.0 995.0 12.9 N 16.1 0.0
07:00 -2.2 96.0 995.2 16.1 N 17.7 0.0
07:05 -2.2 96.0 995.5 12.9 N 17.7 0.0
07:10 -2.0 96.0 995.6 11.3 N 17.7 0.0
07:15 -2.0 96.0 995.6 11.3 N 17.7 0.0
07:20 -2.1 96.0 995.6 12.9 N 14.5 0.0
07:25 -2.1 96.0 995.5 11.3 N 14.5 0.0
07:30 -2.1 96.0 995.6 6.4 N 12.9 0.0
07:35 -2.1 96.0 996.0 6.4 N 12.9 0.0
07:40 -2.1 96.0 996.2 8.0 N 11.3 0.0
07:45 -1.9 96.0 996.4 9.7 N 19.3 0.0
07:50 -1.7 96.0 996.1 11.3 N 20.9 0.0
07:55 -1.6 96.0 996.5 9.7 N 20.9 0.0
08:00 -1.7 96.0 996.6 9.7 N 16.1 0.0
08:05 -1.8 96.0 996.4 9.7 N 14.5 0.0
08:10 -1.8 96.0 996.6 8.0 N 11.3 0.0
08:15 -1.8 96.0 996.6 8.0 N 11.3 0.0
08:20 -1.8 96.0 996.6 4.8 N 11.3 0.0
08:25 -1.7 96.0 996.6 6.4 N 9.7 0.0
08:30 -1.7 96.0 996.6 8.0 N 14.5 0.0
08:35 -1.6 96.0 996.8 6.4 N 11.3 0.0
08:40 -1.4 96.0 996.8 8.0 N 11.3 0.0
08:45 -1.3 96.0 996.6 8.0 N 9.7 0.0
08:50 -1.2 96.0 996.8 4.8 N 11.3 0.0
08:55 -1.1 96.0 996.6 8.0 N 11.3 0.0
09:00 -1.0 96.0 996.6 8.0 N 11.3 0.0
09:05 -0.9 96.0 996.7 4.8 N 12.9 0.0
09:10 -0.7 97.0 996.6 3.2 N 9.7 0.0
09:15 -0.6 96.0 996.6 3.2 N 8.0 0.0
09:20 -0.5 96.0 996.7 4.8 N 8.0 0.0
09:30 -0.3 97.0 996.8 6.4 N 6.4 0.0
09:35 -0.3 97.0 996.9 8.0 N 8.0 0.0
09:40 -0.2 96.0 996.8 4.8 N 9.7 0.2
09:45 -0.1 96.0 997.0 6.4 N 8.0 0.0
09:50 0.1 97.0 997.0 6.4 N 9.7 0.0
09:55 0.1 96.0 997.0 6.4 N 9.7 0.0
10:00 0.2 96.0 997.0 9.7 N 9.7 0.0
10:05 0.2 96.0 997.3 4.8 N 9.7 0.0
10:10 0.3 96.0 997.2 6.4 N 9.7 0.0
10:15 0.3 96.0 997.3 3.2 N 9.7 0.0
10:20 0.4 96.0 997.2 6.4 N 9.7 0.0
10:25 0.5 97.0 997.3 4.8 N 11.3 0.0
10:30 0.6 97.0 997.5 6.4 N 11.3 0.0
10:35 0.5 96.0 997.4 6.4 N 11.3 0.0
10:40 0.6 96.0 997.5 4.8 N 9.7 0.0
10:45 0.5 96.0 997.5 6.4 N 9.7 0.0
10:50 0.6 96.0 997.4 6.4 N 11.3 0.0
10:55 0.6 96.0 997.4 4.8 N 8.0 0.0
11:00 0.6 96.0 997.4 4.8 N 9.7 0.0
11:05 0.5 96.0 997.4 6.4 N 9.7 0.0
11:10 0.4 96.0 997.5 8.0 N 8.0 0.0
11:15 0.4 96.0 997.5 4.8 N 9.7 0.0
11:20 0.4 96.0 997.5 6.4 N 8.0 0.0
11:25 0.4 96.0 997.4 4.8 N 8.0 2.0
11:30 0.6 96.0 997.4 8.0 N 8.0 0.0
11:35 0.4 96.0 997.4 9.7 N 9.7 0.0
11:40 0.4 96.0 997.5 4.8 N 11.3 0.0
11:45 0.5 96.0 997.5 4.8 N 11.3 0.0
11:50 0.6 96.0 997.4 3.2 N 12.9 0.0
11:55 0.7 96.0 997.4 4.8 N 12.9 0.0
12:00 0.9 96.0 997.5 6.4 N 11.3 0.0
12:05 1.0 96.0 997.6 4.8 N 9.7 0.0
12:10 1.2 96.0 997.6 4.8 N 6.4 0.0
12:15 1.3 97.0 997.6 8.0 N 9.7 0.0
12:20 1.2 96.0 997.7 4.8 N 9.7 0.0
12:25 1.2 96.0 997.7 1.6 N 8.0 0.0
12:30 1.1 96.0 997.8 6.4 N 8.0 0.0
12:35 1.0 96.0 997.9 6.4 N 9.7 0.0
12:40 1.0 96.0 997.9 3.2 N 9.7 0.0
12:45 1.1 96.0 997.9 3.2 N 8.0 0.0
12:50 1.1 96.0 997.9 3.2 N 8.0 0.0
12:55 1.2 96.0 998.0 3.2 N 8.0 0.0
13:00 1.3 96.0 997.8 3.2 N 8.0 0.0
13:05 1.6 96.0 997.6 1.6 N 9.7 0.0
13:10 1.8 96.0 997.9 3.2 N 9.7 0.0
13:15 1.9 96.0 997.8 3.2 N 17.7 0.0
13:20 1.6 96.0 997.8 3.2 N 19.3 0.0
13:25 1.3 95.0 997.7 6.4 N 17.7 0.0
13:30 1.2 95.0 997.7 3.2 N 14.5 0.0
13:35 1.2 95.0 997.6 4.8 N 9.7 0.0
13:40 1.2 95.0 997.6 6.4 N 14.5 0.0
13:45 1.1 94.0 997.7 3.2 N 14.5 0.0
13:50 1.1 94.0 997.7 11.3 N 12.9 0.0
13:55 1.3 94.0 997.4 4.8 N 12.9 0.0
14:00 1.5 94.0 997.5 0.0 N 8.0 0.0
14:05 1.7 94.0 997.6 3.2 N 4.8 0.0
14:10 1.8 94.0 997.6 3.2 N 4.8 0.0
14:15 1.8 93.0 997.9 1.6 N 4.8 0.0
14:20 1.8 93.0 997.9 1.6 N 4.8 0.0
14:25 1.9 93.0 997.8 1.6 N 3.2 0.0
14:30 2.2 93.0 997.6 0.0 N 3.2 0.0
14:35 2.7 92.0 997.7 1.6 N 8.0 0.0
14:40 3.2 91.0 997.9 0.0 N 8.0 0.0
14:45 3.8 91.0 998.1 0.0 N 4.8 0.0
14:50 3.9 90.0 998.3 3.2 N 4.8 0.0
14:55 4.0 89.0 998.3 0.0 N 4.8 0.0
15:00 3.8 88.0 998.3 0.0 N 3.2 0.0
15:05 3.6 87.0 998.3 1.6 N 4.8 0.0
15:10 3.2 88.0 998.3 1.6 N 4.8 0.0
15:15 2.9 88.0 998.4 0.0 N 4.8 0.0
15:20 2.6 88.0 998.2 0.0 N 4.8 0.0
15:25 2.4 88.0 998.3 0.0 N 3.2 0.0
15:30 2.3 88.0 998.5 3.2 N 6.4 0.0
15:35 2.2 88.0 998.4 0.0 N 6.4 0.0
15:40 2.0 88.0 998.6 0.0 N 4.8 0.0
15:45 1.9 89.0 998.6 0.0 N 4.8 0.0
15:50 1.7 89.0 998.7 0.0 N 3.2 0.0
15:55 1.6 89.0 998.5 1.6 N 3.2 0.0
16:00 1.5 89.0 998.6 1.6 N 3.2 0.0
16:05 1.4 90.0 998.4 0.0 N 3.2 0.0
16:10 1.3 90.0 998.6 0.0 N 3.2 0.0
16:15 1.2 90.0 998.6 1.6 N 4.8 0.0
16:20 1.2 91.0 998.7 1.6 N 4.8 0.0
16:25 1.2 91.0 998.6 0.0 N 1.6 0.0
16:30 1.1 91.0 998.6 0.0 N 1.6 0.0
16:35 0.9 90.0 998.7 0.0 N 4.8 0.0
16:40 0.8 91.0 998.7 0.0 N 4.8 0.0
16:45 0.8 92.0 998.9 3.2 N 4.8 0.0
16:50 0.8 92.0 998.8 3.2 N 6.4 0.0
16:55 0.8 92.0 998.8 1.6 N 8.0 0.0
17:00 0.7 92.0 998.8 3.2 N 4.8 0.0
17:05 0.7 92.0 998.7 1.6 N 4.8 0.0
17:10 0.7 92.0 998.8 6.4 N 8.0 0.0
17:15 0.8 92.0 999.0 3.2 N 8.0 0.0
17:20 0.8 92.0 999.3 3.2 N 6.4 0.0
17:25 0.9 92.0 999.4 4.8 N 6.4 0.0
17:30 0.9 92.0 999.4 4.8 N 8.0 0.0
17:35 0.9 91.0 999.2 0.0 N 8.0 0.0
17:40 0.9 91.0 999.5 6.4 N 8.0 0.0
17:45 0.9 91.0 999.2 3.2 N 6.4 0.0
17:50 0.9 92.0 999.5 3.2 N 6.4 0.0
17:55 0.9 92.0 999.5 0.0 N 6.4 0.0
18:00 0.8 92.0 999.5 0.0 N 4.8 0.0
18:05 0.8 92.0 999.6 0.0 N 6.4 0.0
18:10 0.7 92.0 999.6 3.2 N 6.4 0.0
18:15 0.7 92.0 999.5 3.2 N 6.4 0.0
18:20 0.6 92.0 999.8 1.6 N 6.4 0.0
18:25 0.6 93.0 999.9 3.2 N 6.4 0.0
18:30 0.5 92.0 1000.0 4.8 N 8.0 0.0
18:35 0.5 93.0 999.9 4.8 N 8.0 0.0
18:40 0.6 93.0 999.9 3.2 N 8.0 0.0
18:45 0.4 93.0 1000.0 1.6 N 6.4 0.0
18:50 0.4 93.0 1000.0 4.8 N 6.4 0.0
18:55 0.4 93.0 999.9 0.0 N 6.4 0.0
19:00 0.3 93.0 999.9 4.8 N 6.4 0.0
19:05 0.3 94.0 999.8 3.2 N 8.0 0.0
19:10 0.2 94.0 999.9 3.2 N 8.0 0.0
19:15 0.2 94.0 999.7 6.4 N 9.7 0.0
19:20 0.3 94.0 999.7 8.0 N 9.7 0.0
19:25 0.3 94.0 999.9 6.4 N 9.7 0.0
19:30 0.3 94.0 1000.2 6.4 N 9.7 0.0
19:35 0.3 94.0 1000.2 6.4 N 8.0 0.0
19:40 0.2 94.0 1000.2 1.6 N 8.0 0.0
19:45 0.2 94.0 1000.2 4.8 N 14.5 0.0
19:50 0.2 93.0 1000.2 4.8 N 14.5 0.0
19:55 0.2 94.0 1000.0 6.4 N 11.3 0.0
20:00 0.2 93.0 1000.2 6.4 N 11.3 0.0
20:05 0.2 92.0 1000.2 8.0 N 12.9 0.0
20:10 0.3 89.0 1000.3 14.5 N 16.1 0.0
20:10 0.3 88.0 1000.5 6.4 N 16.1 0.0
20:20 0.4 85.0 1000.5 9.7 N 14.5 0.0
20:20 0.5 84.0 1000.4 6.4 N 16.1 0.0
20:25 0.5 82.0 1000.5 6.4 N 12.9 0.0
20:30 0.5 81.0 1000.6 6.4 N 12.9 0.0
20:40 0.4 78.0 1000.5 9.7 N 14.5 0.0
20:40 0.4 76.0 1000.5 4.8 N 14.5 0.0
20:45 0.5 80.0 1000.5 6.4 N 11.3 0.0
20:50 0.4 77.0 1000.7 6.4 N 12.9 0.0
20:55 0.4 73.0 1000.8 4.8 N 12.9 0.0
21:00 0.4 71.0 1000.8 4.8 N 11.3 0.0
21:05 0.3 71.0 1000.9 8.0 N 11.3 0.0
21:10 0.3 69.0 1000.8 11.3 N 11.3 0.0
21:15 0.3 69.0 1000.7 4.8 N 11.3 0.0
21:20 0.3 68.0 1000.8 1.6 N 9.7 0.0
21:25 0.3 66.0 1000.8 8.0 N 11.3 0.0
Màxima 4.0 97.0 1000.9 19.3 N 20.9 2.0
Mínima -2.4 66.0 994.7
Total 2.2